Regional Weather Roundup
Issued by NWS

Home | Current Version | Previous Version | Text Only | Print | Product List | Glossary On
Versions: 1 2 3 4 5 6 7 8 9 10 11 12 13 14 15 16 17 18 19 20 21 22 23 24 25 26 27 28 29 30 31 32 33 34 35 36 37 38 39 40 41 42 43 44 45 46 47 48 49 50
000
ASUS43 KTOP 180808
RWRKS

WEATHER ROUNDUP FOR KANSAS
NATIONAL WEATHER SERVICE GOODLAND KS
200 AM CST MON DEC 18 2017

NOTE:  "FAIR" INDICATES FEW OR NO CLOUDS BELOW 12,000 FEET WITH NO
SIGNIFICANT WEATHER AND/OR OBSTRUCTIONS TO VISIBILITY.

KSZ001>006-013>018-027>032-041>047-180900-
NORTHWEST KANSAS

CITY           SKY/WX    TMP DP  RH WIND       PRES   REMARKS
GOODLAND       CLOUDY    25  21  85 SW9       29.97S
HILL CITY      CLOUDY    24  23  96 SW5       30.02R
RUSSELL        CLEAR     22  22 100 SW7       30.01S
$$

KSZ061>065-074>080-084>089-180900-
SOUTHWEST KANSAS

CITY           SKY/WX    TMP DP  RH WIND       PRES   REMARKS
DODGE CITY     CLOUDY    22  18  85 SW8       30.04S
ELKHART        CLOUDY    32  28  85 SW10      30.01S WCI  23
GARDEN CITY    CLOUDY    25  22  88 SW5       30.02F
GREAT BEND     CLOUDY    23  21  92 SW8       30.04S
LIBERAL        CLOUDY    21  17  84 W7        30.05F
PRATT          PTCLDY    22  19  87 SW5       30.05S
$$

KSZ066>073-081>083-090>101-180900-
SOUTHEAST KANSAS

CITY           SKY/WX    TMP DP  RH WIND       PRES   REMARKS
CHANUTE        CLOUDY    44  43  96 SW8       30.07S
COFFEYVILLE    CLOUDY    45  43  93 S7        30.09S
HUTCHINSON     CLOUDY    28  25  88 NW5       30.04S
MEDICINE LODGE   N/A     27  26  96 NW5       30.06S
NEWTON         PTCLDY    28  28 100 SW5       30.05S FOG
PARSONS        CLOUDY    44  44 100 SW6       30.09S
WICHITA INTL   PTCLDY    30  29  96 W3        30.05S
WICHITA JABRA  CLEAR     34  34 100 W8        30.05S
WICHITA MCCONL CLEAR     35  34  93 CALM      30.05S
WINFIELD       CLEAR     37  37 100 SW7       30.08S FOG
$$

KSZ007>012-019>026-033>040-048>060-102>105-180900-
NORTHEAST KANSAS

CITY           SKY/WX    TMP DP  RH WIND       PRES   REMARKS
CONCORDIA      CLOUDY    30  27  88 SW7       30.01R
EMPORIA        CLEAR     40  37  89 SW8       30.03S
LAWRENCE       CLOUDY    45  42  89 SW8       30.02S
MANHATTAN      CLEAR     34  32  92 W5        30.03S FOG
MARYSVILLE     FOG       30  30 100 SW3       30.02R VSB 1/4
OLATHE IND     CLOUDY    43  42  97 SW5       30.03F
OLATHE EXE     CLOUDY    43  42  97 SW7       30.02F
SALINA         CLEAR     28  25  88 S7        30.04F
TOPEKA BILLARD CLOUDY    43  41  93 W3        30.02S
TOPEKA FORBES  MOCLDY    40  38  93 SW6       30.02S
$$



USA.gov is the U.S. government's official web portal to all federal, state and local government web resources and services.